Weather History for Americus, GA

Change the Weather History Date:

Sunday, December 1, 2013

  Actual Average (KABY) Record (KABY)
Temperature  
Mean Temperature 50 °F 54 °F  
Max Temperature 60 °F 66 °F 83 °F (1991)
Min Temperature 39 °F 42 °F 18 °F (1979)
Degree Days  
Heating Degree Days 16 11  
Month to date heating degree days 11  
Since 1 July heating degree days 281  
Cooling Degree Days 0 0  
Month to date cooling degree days 0  
Year to date cooling degree days 2533  
Moisture  
Dew Point 42 °F    
Average Humidity 80    
Maximum Humidity 100    
Minimum Humidity 63    
Precipitation  
Precipitation 0.00 in 0.15 in 0.61 in (2006)
Month to date precipitation 0.15  
Year to date precipitation 44.97  
Sea Level Pressure  
Sea Level Pressure 30.20 in    
Wind  
Wind Speed 3 mph (NE)    
Max Wind Speed 8 mph    
Max Gust Speed -    
Visibility 10 miles    
Events      
T = Trace of Precipitation, MM = Missing Value Source: NWS Daily Summary

Daily Weather History Graph

Daily Weather History Graph

Search for Another Location

Airport:

Trip Planner

Search our weather history database for the weather conditions in past years. The results will help you decide how hot, cold, wet, or windy it might be!

Date:

Astronomy

Dec. 01, 2013 Rise Set
Actual Time 7:19 AM EST 5:31 PM EST
Civil Twilight 6:53 AM EST 5:58 PM EST
Nautical Twilight 6:22 AM EST 6:28 PM EST
Astronomical Twilight 5:53 AM EST 6:58 PM EST
Moon 5:41 AM EST (12/1) 4:37 PM EST (12/1)
Length of Visible Light 11h 05m
Length of Day
10h 12m
Waning Crescent, 2% of the Moon is Illuminated
Dec 1
Waning Crescent
Dec 2
New
Dec 9
First Quarter
Dec 17
Full
Dec 25
Last Quarter

Hourly Weather History & Observations

Time (EST) Temp. Windchill Dew Point Humidity Pressure Visibility Wind Dir Wind Speed Gust Speed Precip Events Conditions
12:15 AM 41.0 °F 39.0 °F 35.6 °F 81% 30.33 in 10.0 mi NNE 3.5 mph - N/A   Overcast
12:35 AM 41.0 °F 39.0 °F 35.6 °F 81% 30.32 in 10.0 mi NNE 3.5 mph - N/A   Overcast
12:55 AM 41.0 °F 39.0 °F 35.6 °F 81% 30.32 in 10.0 mi NNE 3.5 mph - N/A   Overcast
1:15 AM 41.0 °F 38.0 °F 35.6 °F 81% 30.31 in 10.0 mi NE 4.6 mph - N/A   Overcast
1:35 AM 41.0 °F 39.0 °F 35.6 °F 81% 30.31 in 10.0 mi NE 3.5 mph - N/A   Mostly Cloudy
1:55 AM 41.0 °F 38.0 °F 35.6 °F 81% 30.31 in 10.0 mi NE 4.6 mph - N/A   Overcast
2:15 AM 41.0 °F 39.0 °F 35.6 °F 81% 30.30 in 10.0 mi NE 3.5 mph - N/A   Overcast
2:35 AM 41.0 °F 38.0 °F 35.6 °F 81% 30.30 in 10.0 mi NE 4.6 mph - N/A   Mostly Cloudy
2:55 AM 41.0 °F 38.0 °F 35.6 °F 81% 30.29 in 10.0 mi NNE 4.6 mph - N/A   Scattered Clouds
3:15 AM 39.2 °F 35.9 °F 33.8 °F 81% 30.28 in 10.0 mi NNE 4.6 mph - N/A   Clear
3:35 AM 41.0 °F 38.0 °F 35.6 °F 81% 30.28 in 10.0 mi NNE 4.6 mph - N/A   Clear
3:55 AM 39.2 °F 35.0 °F 35.6 °F 87% 30.28 in 10.0 mi NNE 5.8 mph - N/A   Clear
4:15 AM 39.2 °F 37.0 °F 35.6 °F 87% 30.28 in 10.0 mi NNE 3.5 mph - N/A   Mostly Cloudy
4:35 AM 41.0 °F 38.0 °F 35.6 °F 81% 30.28 in 10.0 mi NNE 4.6 mph - N/A   Overcast
4:55 AM 41.0 °F 37.1 °F 35.6 °F 81% 30.27 in 10.0 mi NE 5.8 mph - N/A   Overcast
5:15 AM 41.0 °F 37.1 °F 35.6 °F 81% 30.27 in 10.0 mi NE 5.8 mph - N/A   Overcast
5:35 AM 41.0 °F 36.4 °F 35.6 °F 81% 30.28 in 10.0 mi NNE 6.9 mph - N/A   Overcast
5:55 AM 42.8 °F 38.6 °F 33.8 °F 70% 30.29 in 10.0 mi NNE 6.9 mph - N/A   Overcast
6:15 AM 42.8 °F 38.6 °F 35.6 °F 76% 30.29 in 10.0 mi NNE 6.9 mph - N/A   Overcast
6:35 AM 42.8 °F 38.0 °F 35.6 °F 76% 30.28 in 10.0 mi NE 8.1 mph - N/A   Overcast
6:55 AM 42.8 °F 39.3 °F 35.6 °F 76% 30.28 in 10.0 mi NE 5.8 mph - N/A   Overcast
7:15 AM 42.8 °F 39.3 °F 35.6 °F 76% 30.28 in 10.0 mi NE 5.8 mph - N/A   Overcast
7:35 AM 42.8 °F 40.1 °F 35.6 °F 76% 30.29 in 10.0 mi NE 4.6 mph - N/A   Overcast
7:55 AM 42.8 °F 38.6 °F 35.6 °F 76% 30.30 in 10.0 mi NNE 6.9 mph - N/A   Overcast
8:15 AM 42.8 °F 40.1 °F 35.6 °F 76% 30.30 in 10.0 mi NNE 4.6 mph - N/A   Overcast
8:35 AM 42.8 °F 40.1 °F 35.6 °F 76% 30.30 in 10.0 mi NE 4.6 mph - N/A   Overcast
8:55 AM 44.6 °F 42.2 °F 35.6 °F 71% 30.31 in 10.0 mi NE 4.6 mph - N/A   Overcast
9:15 AM 44.6 °F 42.2 °F 35.6 °F 71% 30.30 in 10.0 mi NE 4.6 mph - N/A   Overcast
9:35 AM 44.6 °F 43.1 °F 37.4 °F 76% 30.31 in 10.0 mi NNE 3.5 mph - N/A   Overcast
9:55 AM 46.4 °F 45.2 °F 37.4 °F 71% 30.31 in 10.0 mi ENE 3.5 mph - N/A   Overcast
10:15 AM 46.4 °F 45.2 °F 39.2 °F 76% 30.30 in 10.0 mi East 3.5 mph - N/A   Overcast
10:35 AM 48.2 °F - 41.0 °F 76% 30.29 in 10.0 mi Calm Calm - N/A   Overcast
10:55 AM 50.0 °F - 42.8 °F 76% 30.29 in 10.0 mi Calm Calm - N/A   Overcast
11:15 AM 50.0 °F - 42.8 °F 76% 30.28 in 10.0 mi Calm Calm - N/A   Overcast
11:35 AM 51.8 °F - 42.8 °F 71% 30.26 in 10.0 mi Calm Calm - N/A   Overcast
11:55 AM 51.8 °F - 44.6 °F 76% 30.25 in 10.0 mi Calm Calm - N/A   Overcast
12:15 PM 53.6 °F - 44.6 °F 72% 30.23 in 10.0 mi Calm Calm - N/A   Mostly Cloudy
12:35 PM 55.4 °F - 46.4 °F 72% 30.21 in 10.0 mi South 3.5 mph - N/A   Scattered Clouds
12:55 PM 57.2 °F - 46.4 °F 67% 30.20 in 10.0 mi Calm Calm - N/A   Clear
1:15 PM 59.0 °F - 46.4 °F 63% 30.19 in 10.0 mi Calm Calm - N/A   Clear
1:35 PM 59.0 °F - 48.2 °F 67% 30.17 in 10.0 mi Calm Calm - N/A   Clear
1:55 PM 59.0 °F - 48.2 °F 67% 30.16 in 10.0 mi NNW 5.8 mph - N/A   Clear
2:15 PM 60.8 °F - 48.2 °F 63% 30.15 in 10.0 mi Calm Calm - N/A   Clear
2:35 PM 60.8 °F - 48.2 °F 63% 30.14 in 10.0 mi Calm Calm - N/A   Scattered Clouds
2:55 PM 60.8 °F - 48.2 °F 63% 30.13 in 10.0 mi Calm Calm - N/A   Scattered Clouds
3:15 PM 60.8 °F - 48.2 °F 63% 30.12 in 10.0 mi Calm Calm - N/A   Scattered Clouds
3:35 PM 60.8 °F - 48.2 °F 63% 30.12 in 10.0 mi Calm Calm - N/A   Scattered Clouds
3:55 PM 60.8 °F - 48.2 °F 63% 30.11 in 10.0 mi Calm Calm - N/A   Mostly Cloudy
4:15 PM 60.8 °F - 48.2 °F 63% 30.11 in 10.0 mi NE 3.5 mph - N/A   Scattered Clouds
4:35 PM 59.0 °F - 48.2 °F 67% 30.10 in 10.0 mi ENE 3.5 mph - N/A   Scattered Clouds
4:55 PM 59.0 °F - 48.2 °F 67% 30.10 in 10.0 mi Calm Calm - N/A   Clear
5:15 PM 55.4 °F - 50.0 °F 82% 30.09 in 10.0 mi Calm Calm - N/A   Clear
5:35 PM 53.6 °F - 50.0 °F 88% 30.10 in 10.0 mi Calm Calm - N/A   Scattered Clouds
5:55 PM 53.6 °F - 50.0 °F 88% 30.09 in 10.0 mi Calm Calm - N/A   Scattered Clouds
6:15 PM 51.8 °F - 50.0 °F 94% 30.09 in 10.0 mi Calm Calm - N/A   Clear
6:35 PM 51.8 °F - 50.0 °F 94% 30.09 in 10.0 mi Calm Calm - N/A   Clear
6:55 PM 51.8 °F - 50.0 °F 94% 30.09 in 10.0 mi Calm Calm - N/A   Clear
7:15 PM 51.8 °F - 48.2 °F 88% 30.09 in 10.0 mi Calm Calm - N/A   Clear
7:35 PM 50.0 °F - 48.2 °F 94% 30.09 in 10.0 mi Calm Calm - N/A   Clear
7:55 PM 50.0 °F - 48.2 °F 94% 30.09 in 10.0 mi Calm Calm - N/A   Clear
8:15 PM 50.0 °F - 48.2 °F 94% 30.09 in 10.0 mi Calm Calm - N/A   Mostly Cloudy
8:35 PM 50.0 °F - 48.2 °F 94% 30.09 in 10.0 mi Calm Calm - N/A   Overcast
8:55 PM 48.2 °F - 46.4 °F 93% 30.08 in 10.0 mi Calm Calm - N/A   Overcast
9:15 PM 46.4 °F - 46.4 °F 100% 30.08 in 5.0 mi Calm Calm - N/A   Mostly Cloudy
9:35 PM 50.0 °F - 48.2 °F 94% 30.08 in 10.0 mi Calm Calm - N/A   Scattered Clouds
9:55 PM 48.2 °F - 46.4 °F 93% 30.07 in 7.0 mi Calm Calm - N/A   Scattered Clouds
10:15 PM 46.4 °F - 46.4 °F 100% 30.06 in 5.0 mi Calm Calm - N/A   Scattered Clouds
10:35 PM 48.2 °F - 46.4 °F 93% 30.06 in 5.0 mi Calm Calm - N/A   Scattered Clouds
10:55 PM 46.4 °F - 46.4 °F 100% 30.06 in 7.0 mi Calm Calm - N/A   Scattered Clouds
11:15 PM 48.2 °F - 46.4 °F 93% 30.05 in 10.0 mi Calm Calm - N/A   Clear
11:35 PM 50.0 °F - 48.2 °F 94% 30.06 in 10.0 mi Calm Calm - N/A   Clear
11:55 PM 48.2 °F - 46.4 °F 93% 30.06 in 7.0 mi Calm Calm - N/A   Clear